LEOPARD

Last updated on Mon Sep 21 2026 00:02:05 GMT+0000 (Coordinated Universal Time)

1 67687U 98067YD 26263.02842523 .00156559 00000+0 98877-3 0 9991 2 67687 51.6233 172.0923 0008611 170.3909 189.7257 15.75567620 35073
UTC large
Height (km)
Speed (km/s)
/
Latitude / Longitude
Inclination (degrees)
Orbital Period (minutes)
Azimuth
Elevation
Range (km)
Doppler Factor

Next 0 passes for location: London (51.5072 / 0.1276)

No passes found over London.
LEOPARD